North Platte, NE

9:22 AM CDT on March 29, 2017 (GMT -0500)
North Platte Regional-Bird

Weather History for KLBF - November, 2011

Change the Weather History Date:

Saturday, November 26, 2011

  Actual Average Record
Temperature  
Mean Temperature 31 °F 30 °F  
Max Temperature 43 °F 45 °F 73 °F (1960)
Min Temperature 19 °F 16 °F -12 °F (1887)
Degree Days  
Heating Degree Days 34 35  
Month to date heating degree days 716 741  
Since 1 July heating degree days 1301 1410  
Cooling Degree Days 0 0  
Month to date cooling degree days 0 0  
Year to date cooling degree days 921 768  
Moisture  
Dew Point 15 °F    
Average Humidity 46    
Maximum Humidity 71    
Minimum Humidity 20    
Precipitation  
Precipitation 0.00 in 0.02 in 0.64 in (1919)
Month to date precipitation 0.13 0.58  
Year to date precipitation 23.40 19.76  
Snow  
Snow 0.00 in 0.10 in 7.20 in (1919)
Month to date snowfall 1.5 3.3  
Since 1 July snowfall 1.5 5.6  
Since 1 September snowfall 1.5 5.6  
Snow Depth 0.00 in    
Sea Level Pressure  
Sea Level Pressure 30.30 in    
Wind  
Wind Speed 23 mph (NNW)    
Max Wind Speed 40 mph    
Max Gust Speed 55 mph    
Visibility 10 miles    
Events      
T = Trace of Precipitation, MM = Missing Value Source: NWS Daily Summary

Daily Weather History Graph

Daily Weather History Graph

Search for Another Location

Airport or City:

Trip Planner

Search our weather history database for the weather conditions in past years. The results will help you decide how hot, cold, wet, or windy it might be!

Date:

Astronomy

Nov. 26, 2011 Rise Set
Actual Time 7:43 AM CST 5:16 PM CST
Civil Twilight 7:12 AM CST 5:47 PM CST
Nautical Twilight 6:38 AM CST 6:20 PM CST
Astronomical Twilight 6:05 AM CST 6:53 PM CST
Moon 9:16 AM CST (11/26) 6:49 PM CST (11/26)
Length of Visible Light 10h 34m
Length of Day
9h 33m
Waxing Crescent, 3% of the Moon is Illuminated
Nov 26
Waxing Crescent
Dec 2
First Quarter
Dec 10
Full
Dec 17
Last Quarter
Dec 24
New

Hourly Weather History & Observations

Time (CST) Temp. Windchill Dew Point Humidity Pressure Visibility Wind Dir Wind Speed Gust Speed Precip Events Conditions
12:53 AM 41.0 °F 30.7 °F 28.9 °F 62% 29.90 in 10.0 mi North 25.3 mph 36.8 mph N/A   Clear
1:53 AM 39.9 °F 28.6 °F 28.9 °F 65% 29.95 in 10.0 mi NNW 28.8 mph 36.8 mph N/A   Partly Cloudy
2:53 AM 39.0 °F 28.0 °F 28.9 °F 67% 30.02 in 10.0 mi NNW 25.3 mph 41.4 mph N/A   Overcast
3:53 AM 39.0 °F 28.3 °F 24.1 °F 55% 30.06 in 10.0 mi NNW 24.2 mph 38.0 mph N/A   Overcast
5:53 AM 39.0 °F 29.3 °F 19.9 °F 46% 30.14 in 10.0 mi NW 19.6 mph 32.2 mph N/A   Overcast
6:53 AM 37.9 °F 26.1 °F 21.0 °F 51% 30.20 in 10.0 mi NNW 27.6 mph 42.6 mph N/A   Overcast
7:53 AM 35.1 °F 22.2 °F 23.0 °F 61% 30.27 in 10.0 mi NNW 27.6 mph 38.0 mph N/A   Scattered Clouds
8:53 AM 35.6 °F 23.4 °F 21.2 °F 56% 30.25 in 10.0 mi NNW 25.3 mph 39.1 mph N/A   Partly Cloudy
9:53 AM 37.9 °F 25.9 °F 19.9 °F 48% 30.33 in 10.0 mi NNW 28.8 mph 40.3 mph N/A   Clear
10:53 AM 42.1 °F 31.1 °F 12.9 °F 31% 30.34 in 10.0 mi NNW 31.1 mph 47.2 mph N/A   Clear
11:53 AM 42.1 °F 31.1 °F 9.0 °F 26% 30.35 in 10.0 mi NNW 31.1 mph 48.3 mph N/A   Clear
12:53 PM 42.1 °F 31.1 °F 8.1 °F 25% 30.34 in 10.0 mi NNW 31.1 mph 52.9 mph N/A   Clear
1:53 PM 43.0 °F 32.4 °F 9.0 °F 25% 30.34 in 10.0 mi NNW 31.1 mph 55.2 mph N/A   Clear
2:53 PM 42.1 °F 31.3 °F 7.0 °F 24% 30.35 in 10.0 mi NNW 29.9 mph 46.0 mph N/A   Clear
3:53 PM 41.0 °F 29.7 °F 3.9 °F 21% 30.38 in 10.0 mi NNW 31.1 mph 41.4 mph N/A   Clear
4:53 PM 37.9 °F 26.8 °F 1.9 °F 22% 30.40 in 10.0 mi NNW 24.2 mph 34.5 mph N/A   Clear
5:53 PM 34.0 °F 25.0 °F 5.0 °F 30% 30.43 in 10.0 mi NNW 12.7 mph - N/A   Clear
6:53 PM 30.9 °F 22.2 °F 7.0 °F 37% 30.46 in 10.0 mi NW 10.4 mph - N/A   Clear
7:53 PM 26.1 °F 16.8 °F 10.0 °F 51% 30.49 in 10.0 mi NW 9.2 mph - N/A   Clear
8:53 PM 21.9 °F 13.4 °F 9.0 °F 58% 30.49 in 10.0 mi NNW 6.9 mph - N/A   Clear
9:53 PM 21.0 °F 10.6 °F 14.0 °F 74% 30.50 in 10.0 mi NW 9.2 mph - N/A   Clear
10:53 PM 25.0 °F 12.2 °F 16.0 °F 69% 30.50 in 10.0 mi WNW 16.1 mph - N/A   Clear
11:53 PM 24.1 °F 13.1 °F 15.1 °F 69% 30.48 in 10.0 mi NW 11.5 mph - N/A   Clear